DW7361 Weather Reports


time (UTC)temp
C
wind
direction
speed
KPH
gust
KPH
rain 1hr
cm
rain 24hr
cm
rain mn
cm
humidity
%
barometer
mb
20260505124543 18 10 1.6 8.0 0.00 0.00 0.00 59 1010.9
20260505123034 17 271 0.0 6.4 0.00 0.00 0.00 59 1010.8
20260505121531 16 24 0.0 4.8 0.00 0.00 0.00 60 1010.6
20260505120035 16 142 0.0 4.8 0.00 0.00 0.00 60 1010.5
20260505114528 15 269 0.0 3.2 0.00 0.00 0.00 59 1010.6
20260505113031 15 142 0.0 3.2 0.00 0.00 0.00 59 1010.5
20260505111525 14 349 0.0 4.8 0.00 0.00 0.00 57 1010.4
20260505101525 13 27 0.0 0.0 0.00 0.00 0.00 59 1010.0
20260505100018 13 29 0.0 0.0 0.00 0.00 0.00 62 1009.7
20260505094524 13 29 0.0 1.6 0.00 0.00 0.00 64 1009.7
20260505093012 13 46 0.0 1.6 0.00 0.00 0.00 64 1009.5
20260505091512 13 343 0.0 1.6 0.00 0.00 0.00 65 1009.5
20260505090010 13 77 0.0 3.2 0.00 0.00 0.00 66 1009.5
20260505084509 14 297 0.0 0.0 0.00 0.00 0.00 67 1009.3
20260505083008 15 12 0.0 0.0 0.00 0.00 0.00 66 1009.6
20260505081507 15 288 0.0 1.6 0.00 0.00 0.00 66 1009.6
20260505080007 15 294 0.0 0.0 0.00 0.00 0.00 65 1009.4
20260505074506 16 107 0.0 1.6 0.00 0.00 0.00 65 1009.5
20260505073005 16 152 0.0 0.0 0.00 0.00 0.00 64 1009.4
20260505071504 16 63 0.0 1.6 0.00 0.00 0.00 63 1009.4
20260505070005 16 31 0.0 1.6 0.00 0.00 0.00 63 1009.6
20260505064505 16 112 0.0 1.6 0.00 0.00 0.00 63 1009.5
20260505063002 16 86 0.0 3.2 0.00 0.00 0.00 63 1009.6
20260505061501 16 8 0.0 4.8 0.00 0.00 0.00 63 1009.6
20260505060100 15 87 0.0 4.8 0.00 0.00 0.00 64 1009.5
20260505054609 15 325 0.0 4.8 0.00 0.00 0.00 64 1009.4
20260505053101 14 51 0.0 1.6 0.00 0.00 0.00 66 1009.4
20260505051553 15 3 0.0 1.6 0.00 0.00 0.00 65 1009.6
20260505041555 15 264 0.0 1.6 0.00 0.00 0.00 61 1009.5
20260505040051 15 320 0.0 1.6 0.00 0.00 0.00 60 1009.3
20260505034540 15 298 0.0 3.2 0.00 0.00 0.00 60 1009.2
20260505033036 15 277 0.0 4.8 0.00 0.00 0.00 59 1009.3
20260505031540 15 264 0.0 3.2 0.00 0.00 0.00 61 1009.3
20260505030029 15 18 0.0 1.6 0.00 0.00 0.00 61 1009.3
20260505024524 15 293 0.0 1.6 0.00 0.00 0.00 60 1009.3
20260505023020 15 239 0.0 1.6 0.00 0.00 0.00 61 1009.6
20260505021516 15 49 0.0 1.6 0.00 0.00 0.00 61 1009.7
20260505020011 14 98 0.0 0.0 0.00 0.00 0.00 62 1009.6
20260505014507 14 135 0.0 0.0 0.00 0.00 0.00 62 1009.5
20260505013003 15 135 0.0 0.0 0.00 0.00 0.00 59 1009.6
20260505011607 15 135 0.0 0.0 0.00 0.00 0.00 59 1009.5
20260505010055 16 135 0.0 0.0 0.00 0.00 0.00 57 1009.2
20260505004550 16 135 0.0 0.0 0.00 0.00 0.00 54 1009.1
20260505003045 17 135 0.0 0.0 0.00 0.00 0.00 51 1009.0
20260505001541 18 135 0.0 0.0 0.00 0.00 0.00 49 1008.9
20260505000048 18 135 0.0 0.0 0.00 0.00 0.00 47 1008.7
20260504234535 20 137 0.0 1.6 0.00 0.00 0.00 44 1008.8
20260504233027 20 316 0.0 4.8 0.00 0.00 0.00 42 1008.7
20260504231522 21 352 0.0 3.2 0.00 0.00 0.00 40 1008.7
20260504230018 22 223 0.0 4.8 0.00 0.00 0.00 38 1008.6
20260504224519 22 253 1.6 6.4 0.00 0.00 0.00 38 1008.5
20260504223027 23 200 1.6 6.4 0.00 0.00 0.00 37 1008.7
20260504221513 24 268 1.6 8.0 0.00 0.00 0.00 36 1008.7
20260504220015 24 286 1.6 4.8 0.00 0.00 0.00 34 1008.7
20260504214507 23 256 0.0 9.7 0.00 0.00 0.00 35 1008.8
20260504213003 24 288 3.2 9.7 0.00 0.00 0.00 34 1008.9
20260504211600 23 160 1.6 6.4 0.00 0.00 0.00 36 1008.9
20260504210058 23 250 1.6 9.7 0.00 0.00 0.00 36 1008.9
20260504204549 23 117 1.6 12.9 0.00 0.00 0.00 36 1009.0
20260504203059 23 82 3.2 9.7 0.00 0.00 0.00 36 1009.0
20260504201539 23 285 1.6 12.9 0.00 0.00 0.00 37 1009.0
20260504200034 23 217 3.2 11.3 0.00 0.00 0.00 35 1009.2
20260504194529 23 82 1.6 6.4 0.00 0.00 0.00 35 1009.3
20260504193026 23 243 3.2 11.3 0.00 0.00 0.00 36 1009.4
20260504191521 23 84 3.2 8.0 0.00 0.00 0.00 35 1009.6
20260504190016 23 299 1.6 9.7 0.00 0.00 0.00 35 1009.9
20260504184511 22 174 3.2 25.7 0.00 0.00 0.00 36 1010.1
20260504183008 22 102 3.2 11.3 0.00 0.00 0.00 37 1010.3
20260504181511 22 280 3.2 12.9 0.00 0.00 0.00 36 1010.4
20260504180058 22 317 1.6 11.3 0.00 0.00 0.00 36 1010.6
20260504174602 22 304 1.6 11.3 0.00 0.00 0.00 36 1010.7
20260504173048 22 153 3.2 11.3 0.00 0.00 0.00 36 1011.0
20260504171548 21 266 4.8 14.5 0.00 0.00 0.00 36 1011.2